User: anonymous   Login
Location: Unspecified
(0.0000°N, 0.0000°E)
Time: 20:13:38
(UTC+00:00)
Language:

STARLINK-31320 - Orbit

View from above orbital plane
View from above orbital plane
View from above satellite
View from above satellite

Ground track
Ground track

The orbit is defined by the following mean orbital elements,

1 58886U          26145.52159076 +.00000000 +00000-0 +13006-3 0 00004
2 58886  53.1600 324.8893 0000757  77.5052 282.6036 15.34389500    09
Epoch (UTC): 25 May 2026 12:31:05
Eccentricity: 0.0000757
inclination: 53.1600°
perigee height: 462 km
apogee height: 463 km
right ascension of ascending node: 324.8893°
argument of perigee: 77.5052°
revolutions per day: 15.34389500
mean anomaly at epoch: 282.6036°

The dashed part of the orbit path shows where the satellite is in the earth's shadow,  

DLR